Istanbul, Turkey

10:27 AM EEST on September 29, 2016 (GMT +0300)
Ataturk

Weather History for LTBA - June, 2012

Change the Weather History Date:

Friday, June 15, 2012

  Actual Average Record
Temperature  
Mean Temperature 78 °F -  
Max Temperature 85 °F 78 °F 86 °F (1999)
Min Temperature 72 °F 64 °F 59 °F (2006)
Cooling Degree Days 14    
Growing Degree Days 28 (Base 50)    
Moisture  
Dew Point 64 °F    
Average Humidity 64    
Maximum Humidity 94    
Minimum Humidity 35    
Precipitation  
Precipitation 0.00 in - - ()
Sea Level Pressure  
Sea Level Pressure 30.01 in    
Wind  
Wind Speed 10 mph ()    
Max Wind Speed 20 mph    
Max Gust Speed -    
Visibility 6.1 miles    
Events      
Averages and records for this station are not official NWS values.
T = Trace of Precipitation, MM = Missing Value Source: Averaged Metar Reports

Daily Weather History Graph

Daily Weather History Graph

Search for Another Location

Airport or City:

Trip Planner

Search our weather history database for the weather conditions in past years. The results will help you decide how hot, cold, wet, or windy it might be!

Date:

Astronomy

Jun. 15, 2012 Rise Set
Actual Time 5:32 AM EEST 8:38 PM EEST
Civil Twilight 4:58 AM EEST 9:12 PM EEST
Nautical Twilight 4:15 AM EEST 9:55 PM EEST
Astronomical Twilight 3:24 AM EEST 10:46 PM EEST
Moon 2:36 AM EEST (6/15) 4:59 PM EEST (6/15)
Length of Visible Light 16h 13m
Length of Day
15h 06m
Waning Crescent, 16% of the Moon is Illuminated
Jun 15
Waning Crescent
Jun 19
New
Jun 27
First Quarter
Jul 3
Full
Jul 11
Last Quarter

Hourly Weather History & Observations

Time (EEST) Temp. Heat Index Dew Point Humidity Pressure Visibility Wind Dir Wind Speed Gust Speed Precip Events Conditions
12:20 AM 73.4 °F - 69.8 °F 88% 29.95 in - North 9.2 mph - N/A   Clear
12:50 AM 71.6 °F - 69.8 °F 94% 29.95 in - North 11.5 mph - N/A   Clear
1:20 AM 73.4 °F - 69.8 °F 88% 29.95 in - Variable 8.1 mph - N/A   Clear
1:50 AM 73.4 °F - 69.8 °F 88% 29.95 in - North 8.1 mph - N/A   Clear
2:20 AM 73.4 °F - 71.6 °F 94% 29.95 in 6.2 mi North 9.2 mph - N/A   Partly Cloudy
2:50 AM 73.4 °F - 71.6 °F 94% 29.95 in 6.2 mi North 8.1 mph - N/A   Partly Cloudy
3:00 AM 73 °F - 71 °F 92% 29.96 in 6 mi North 8.1 mph - -   Scattered Clouds
3:20 AM 73.4 °F - 71.6 °F 94% 29.95 in 6.2 mi NNE 8.1 mph - N/A   Partly Cloudy
3:50 AM 73.4 °F - 71.6 °F 94% 29.98 in 6.2 mi NNE 11.5 mph - N/A   Partly Cloudy
4:20 AM 73.4 °F - 71.6 °F 94% 29.98 in 6.2 mi NNE 10.4 mph - N/A   Partly Cloudy
4:50 AM 73.4 °F - 69.8 °F 88% 29.98 in 6.2 mi NE 8.1 mph - N/A   Partly Cloudy
5:20 AM 73.4 °F - 68.0 °F 83% 29.98 in - NE 8.1 mph - N/A   Clear
5:50 AM 73.4 °F - 66.2 °F 78% 29.98 in - NE 9.2 mph - N/A   Clear
6:20 AM 73.4 °F - 66.2 °F 78% 29.98 in - NNE 8.1 mph - N/A   Clear
6:50 AM 75.2 °F - 66.2 °F 73% 30.01 in - NNE 9.2 mph - N/A   Clear
7:20 AM 75.2 °F - 66.2 °F 73% 30.01 in - NNE 8.1 mph - N/A   Clear
7:50 AM 75.2 °F - 66.2 °F 73% 30.01 in - North 11.5 mph - N/A   Clear
8:20 AM 77.0 °F - 66.2 °F 69% 30.01 in - NNE 10.4 mph - N/A   Clear
8:50 AM 80.6 °F 82.3 °F 64.4 °F 58% 30.01 in - Variable 8.1 mph - N/A   Clear
9:00 AM 81 °F - 64 °F 47% 30.02 in 6 mi ENE 8.1 mph - -  
9:20 AM 80.6 °F 82.3 °F 64.4 °F 58% 30.04 in - NE 8.1 mph - N/A   Clear
9:50 AM 82.4 °F 82.9 °F 60.8 °F 48% 30.04 in - NNE 9.2 mph - N/A   Clear
10:20 AM 80.6 °F 81.8 °F 62.6 °F 54% 30.04 in - NE 11.5 mph - N/A   Clear
10:50 AM 82.4 °F 82.9 °F 60.8 °F 48% 30.04 in - North 10.4 mph - N/A   Clear
11:20 AM 84.2 °F 84.4 °F 60.8 °F 45% 30.04 in - North 11.5 mph - N/A   Clear
11:50 AM 84.2 °F 83.8 °F 59.0 °F 42% 30.04 in - North 13.8 mph - N/A   Clear
12:20 PM 82.4 °F 82.0 °F 57.2 °F 42% 30.04 in - North 12.7 mph - N/A   Clear
12:50 PM 84.2 °F 83.5 °F 57.2 °F 40% 30.01 in - NNE 12.7 mph - N/A   Clear
1:20 PM 84.2 °F 83.8 °F 59.0 °F 42% 30.01 in - NNE 15.0 mph - N/A   Clear
1:50 PM 84.2 °F 83.8 °F 59.0 °F 42% 30.01 in - North 16.1 mph - N/A   Clear
2:20 PM 84.2 °F 83.8 °F 59.0 °F 42% 30.01 in - North 17.3 mph - N/A   Clear
2:50 PM 82.4 °F 82.0 °F 57.2 °F 42% 30.01 in - NNE 18.4 mph - N/A   Clear
3:00 PM 83 °F - 60 °F 35% 30.02 in 6 mi NNE 18.4 mph - -  
3:20 PM 84.2 °F 83.5 °F 57.2 °F 40% 30.01 in - NNE 16.1 mph - N/A   Clear
3:50 PM 82.4 °F 82.5 °F 59.0 °F 45% 30.01 in - North 16.1 mph - N/A   Clear
4:20 PM 84.2 °F 83.8 °F 59.0 °F 42% 30.01 in - North 16.1 mph - N/A   Clear
4:50 PM 82.4 °F 82.0 °F 57.2 °F 42% 30.01 in - North 18.4 mph - N/A   Clear
5:20 PM 82.4 °F 83.4 °F 62.6 °F 51% 30.01 in - North 17.3 mph - N/A   Clear
5:50 PM 80.6 °F 81.5 °F 60.8 °F 51% 30.01 in - North 19.6 mph - N/A   Clear
6:20 PM 80.6 °F 81.5 °F 60.8 °F 51% 30.01 in - North 16.1 mph - N/A   Clear
6:50 PM 80.6 °F 81.5 °F 60.8 °F 51% 30.01 in - North 13.8 mph - N/A   Clear
7:20 PM 78.8 °F - 59.0 °F 51% 30.04 in - NNE 16.1 mph - N/A   Clear
7:50 PM 78.8 °F - 60.8 °F 54% 30.04 in - North 16.1 mph - N/A   Clear
8:20 PM 77.0 °F - 62.6 °F 61% 30.04 in - NNE 15.0 mph - N/A   Clear
8:50 PM 77.0 °F - 64.4 °F 65% 30.04 in - NNE 13.8 mph - N/A   Clear
9:00 PM 77 °F - 64 °F 55% 30.04 in 6 mi NNE 13.8 mph - -  
9:20 PM 77.0 °F - 66.2 °F 69% 30.04 in - NNE 11.5 mph - N/A   Clear
9:50 PM 75.2 °F - 66.2 °F 73% 30.06 in - Variable 9.2 mph - N/A   Clear
10:20 PM 75.2 °F - 66.2 °F 73% 30.06 in - NE 13.8 mph - N/A   Clear
10:50 PM 75.2 °F - 68.0 °F 78% 30.06 in - Variable 13.8 mph - N/A   Clear
11:20 PM 75.2 °F - 68.0 °F 78% 30.06 in - NE 11.5 mph - N/A   Clear
11:50 PM 75.2 °F - 68.0 °F 78% 30.06 in - NE 12.7 mph - N/A   Clear